Location: Woodhurst
(52.3667°N, 0.0667°W)
Time: 05:41:08
(UTC+00:00)

Spot 4 - Pass Details

Date: 19 May 2025
Orbit: 699 x 715 km, 98.3° (Epoch: 18 June)

Event Time Altitude Azimuth Distance (km) Brightness Sun altitude
Exits shadow 22:56:47 29° 155° (SSE) 1,286 4.6 -16.5°
Maximum altitude 22:59:14 79° 74° (ENE) 723 3.8 -16.6°
Drops below altitude 10° 23:04:02 10° 347° (NNW) 2,188 7.7 -16.7°
Sets 23:06:19 0° 347° (NNW) 3,114 9.0 -16.8°
